Location: Taipo
(41.0000°S, 175.9500°E)
Time: 10:20:50
(UTC+00:00)

Cosmos 1140 Rocket - Pass Details

Date: 18 April 2024
Orbit: 742 x 765 km, 74.1° (Epoch: 24 May)

Event Time Altitude Azimuth Distance (km) Brightness Sun altitude
Exits shadow 17:08:41 32° 233° (SW) 1,278 4.2 -19.9°
Maximum altitude 17:10:35 46° 283° (WNW) 1,003 3.6 -19.5°
Drops below altitude 10° 17:15:29 10° 355° (N) 2,268 5.9 -18.6°
Sets 17:17:54 0° 1° (N) 3,186 6.7 -18.1°
